| time (UTC) | temp C | wind direction | speed KPH | gust KPH | rain 1hr cm | rain 24hr cm | rain mn cm | humidity % | barometer mb |
| 20260905181522 | 35 | 292 | 1.6 | 22.5 | 0.00 | 0.00 | 0.00 | 47 | 1010.6 |
| 20260905181012 | 34 | 145 | 8.0 | 22.5 | 0.00 | 0.00 | 0.00 | 49 | 1010.8 |
| 20260905180602 | 34 | 193 | 4.8 | 20.9 | 0.00 | 0.00 | 0.00 | 49 | 1010.8 |
| 20260905180040 | 33 | 178 | 8.0 | 19.3 | 0.00 | 0.00 | 0.00 | 50 | 1010.9 |
| 20260905175529 | 33 | 140 | 6.4 | 19.3 | 0.00 | 0.00 | 0.00 | 48 | 1011.1 |
| 20260905175018 | 33 | 184 | 4.8 | 14.5 | 0.00 | 0.00 | 0.00 | 53 | 1010.9 |
| 20260905174506 | 33 | 183 | 0.0 | 19.3 | 0.00 | 0.00 | 0.00 | 54 | 1011.2 |
| 20260905174058 | 33 | 187 | 12.9 | 20.9 | 0.00 | 0.00 | 0.00 | 55 | 1011.3 |
| 20260905173547 | 33 | 189 | 6.4 | 12.9 | 0.00 | 0.00 | 0.00 | 54 | 1011.3 |
| 20260905173037 | 33 | 141 | 4.8 | 17.7 | 0.00 | 0.00 | 0.00 | 55 | 1011.4 |
| 20260905172528 | 33 | 49 | 9.7 | 17.7 | 0.00 | 0.00 | 0.00 | 54 | 1011.4 |
| 20260905172017 | 33 | 178 | 9.7 | 17.7 | 0.00 | 0.00 | 0.00 | 55 | 1011.5 |
| 20260905171509 | 33 | 150 | 8.0 | 22.5 | 0.00 | 0.00 | 0.00 | 56 | 1011.4 |
| 20260905171057 | 33 | 205 | 4.8 | 16.1 | 0.00 | 0.00 | 0.00 | 53 | 1011.4 |
| 20260905170547 | 33 | 134 | 3.2 | 17.7 | 0.00 | 0.00 | 0.00 | 55 | 1011.4 |
| 20260905170024 | 32 | 179 | 9.7 | 20.9 | 0.00 | 0.00 | 0.00 | 55 | 1011.4 |
| 20260905165515 | 32 | 201 | 11.3 | 20.9 | 0.00 | 0.00 | 0.00 | 54 | 1011.4 |
| 20260905165005 | 32 | 167 | 8.0 | 16.1 | 0.00 | 0.00 | 0.00 | 55 | 1011.5 |
| 20260905164554 | 32 | 192 | 8.0 | 16.1 | 0.00 | 0.00 | 0.00 | 56 | 1011.4 |
| 20260905164048 | 32 | 171 | 8.0 | 16.1 | 0.00 | 0.00 | 0.00 | 57 | 1011.5 |
| 20260905163532 | 32 | 172 | 8.0 | 14.5 | 0.00 | 0.00 | 0.00 | 58 | 1011.5 |
| 20260905163022 | 32 | 181 | 6.4 | 19.3 | 0.00 | 0.00 | 0.00 | 60 | 1011.5 |
| 20260905162516 | 32 | 166 | 8.0 | 20.9 | 0.00 | 0.00 | 0.00 | 61 | 1011.7 |
| 20260905162102 | 32 | 188 | 11.3 | 20.9 | 0.00 | 0.00 | 0.00 | 60 | 1011.7 |
| 20260905161552 | 31 | 206 | 11.3 | 19.3 | 0.00 | 0.00 | 0.00 | 61 | 1011.7 |
| 20260905161042 | 31 | 174 | 12.9 | 16.1 | 0.00 | 0.00 | 0.00 | 62 | 1011.7 |
| 20260905160530 | 31 | 182 | 8.0 | 16.1 | 0.00 | 0.00 | 0.00 | 63 | 1011.8 |
| 20260905160011 | 31 | 167 | 9.7 | 19.3 | 0.00 | 0.00 | 0.00 | 65 | 1011.8 |
| 20260905155558 | 30 | 172 | 11.3 | 19.3 | 0.00 | 0.00 | 0.00 | 66 | 1011.8 |
| 20260905155050 | 30 | 196 | 1.6 | 16.1 | 0.00 | 0.00 | 0.00 | 70 | 1011.8 |
| 20260905154539 | 30 | 240 | 4.8 | 14.5 | 0.00 | 0.00 | 0.00 | 70 | 1011.8 |
| 20260905154028 | 30 | 178 | 8.0 | 14.5 | 0.00 | 0.00 | 0.00 | 72 | 1011.7 |
| 20260905153516 | 29 | 174 | 4.8 | 12.9 | 0.00 | 0.00 | 0.00 | 72 | 1011.8 |
| 20260905153012 | 29 | 132 | 4.8 | 12.9 | 0.00 | 0.00 | 0.00 | 75 | 1011.7 |
| 20260905152556 | 28 | 213 | 6.4 | 12.9 | 0.00 | 0.00 | 0.00 | 76 | 1011.7 |
| 20260905152045 | 28 | 214 | 3.2 | 14.5 | 0.00 | 0.00 | 0.00 | 78 | 1011.8 |
| 20260905151536 | 27 | 205 | 4.8 | 12.9 | 0.00 | 0.00 | 0.00 | 79 | 1011.7 |
| 20260905151023 | 27 | 213 | 6.4 | 14.5 | 0.00 | 0.00 | 0.00 | 79 | 1011.9 |
| 20260905150512 | 27 | 215 | 8.0 | 14.5 | 0.00 | 0.00 | 0.00 | 79 | 1011.8 |
| 20260905150052 | 27 | 211 | 9.7 | 17.7 | 0.00 | 0.03 | 0.00 | 79 | 1011.7 |
| 20260905145543 | 27 | 195 | 9.7 | 17.7 | 0.00 | 0.03 | 0.00 | 81 | 1011.7 |
| 20260905145032 | 27 | 208 | 6.4 | 16.1 | 0.00 | 0.03 | 0.00 | 83 | 1011.6 |
| 20260905144520 | 27 | 195 | 8.0 | 17.7 | 0.00 | 0.03 | 0.00 | 85 | 1011.7 |
| 20260905144014 | 26 | 180 | 4.8 | 17.7 | 0.00 | 0.03 | 0.00 | 89 | 1011.8 |
| 20260905143601 | 26 | 173 | 6.4 | 14.5 | 0.00 | 0.03 | 0.00 | 91 | 1011.8 |
| 20260905143050 | 25 | 240 | 4.8 | 12.9 | 0.00 | 0.03 | 0.00 | 93 | 1011.8 |
| 20260905142542 | 25 | 179 | 4.8 | 12.9 | 0.00 | 0.03 | 0.00 | 94 | 1011.7 |
| 20260905142029 | 25 | 215 | 1.6 | 9.7 | 0.00 | 0.03 | 0.00 | 95 | 1011.7 |
| 20260905141518 | 25 | 202 | 3.2 | 9.7 | 0.00 | 0.03 | 0.00 | 95 | 1011.6 |
| 20260905141009 | 25 | 166 | 3.2 | 11.3 | 0.00 | 0.03 | 0.00 | 95 | 1011.6 |
| 20260905140600 | 25 | 193 | 1.6 | 11.3 | 0.00 | 0.03 | 0.00 | 95 | 1011.5 |
| 20260905140038 | 25 | 202 | 6.4 | 12.9 | 0.00 | 0.03 | 0.00 | 96 | 1011.6 |
| 20260905135526 | 25 | 192 | 3.2 | 11.3 | 0.00 | 0.03 | 0.00 | 96 | 1011.5 |
| 20260905135014 | 24 | 193 | 3.2 | 8.0 | 0.00 | 0.03 | 0.00 | 96 | 1011.5 |
| 20260905134504 | 24 | 160 | 1.6 | 8.0 | 0.00 | 0.03 | 0.00 | 96 | 1011.5 |
| 20260905134057 | 23 | 174 | 0.0 | 4.8 | 0.00 | 0.03 | 0.00 | 96 | 1011.4 |
| 20260905133544 | 23 | 148 | 0.0 | 3.2 | 0.00 | 0.03 | 0.00 | 96 | 1011.4 |
| 20260905133034 | 23 | 209 | 0.0 | 0.0 | 0.00 | 0.03 | 0.00 | 96 | 1011.3 |
| 20260905132527 | 22 | 209 | 0.0 | 0.0 | 0.00 | 0.03 | 0.00 | 96 | 1011.3 |
| 20260905132013 | 22 | 175 | 0.0 | 0.0 | 0.00 | 0.03 | 0.00 | 95 | 1011.3 |
| 20260905131606 | 22 | 175 | 0.0 | 0.0 | 0.00 | 0.03 | 0.00 | 95 | 1011.2 |
| 20260905131050 | 22 | 175 | 0.0 | 0.0 | 0.00 | 0.03 | 0.00 | 95 | 1011.2 |
| 20260905130540 | 21 | 175 | 0.0 | 0.0 | 0.00 | 0.03 | 0.00 | 94 | 1011.2 |
| 20260905130018 | 21 | 175 | 0.0 | 0.0 | 0.00 | 0.03 | 0.00 | 94 | 1011.1 |
| 20260905125506 | 21 | 175 | 0.0 | 0.0 | 0.00 | 0.03 | 0.00 | 94 | 1010.9 |
| 20260905125058 | 21 | 175 | 0.0 | 0.0 | 0.00 | 0.03 | 0.00 | 94 | 1010.9 |
| 20260905124552 | 21 | 175 | 0.0 | 0.0 | 0.00 | 0.03 | 0.00 | 94 | 1010.8 |
| 20260905124037 | 21 | 175 | 0.0 | 0.0 | 0.00 | 0.03 | 0.00 | 93 | 1010.7 |
| 20260905123526 | 21 | 175 | 0.0 | 0.0 | 0.00 | 0.03 | 0.00 | 93 | 1010.6 |
| 20260905123015 | 21 | 175 | 0.0 | 0.0 | 0.00 | 0.03 | 0.00 | 93 | 1010.6 |
| 20260905122507 | 21 | 175 | 0.0 | 0.0 | 0.00 | 0.03 | 0.00 | 93 | 1010.6 |
| 20260905122056 | 21 | 175 | 0.0 | 0.0 | 0.00 | 0.03 | 0.00 | 93 | 1010.6 |
| 20260905121546 | 21 | 175 | 0.0 | 0.0 | 0.00 | 0.03 | 0.00 | 93 | 1010.6 |
| 20260905121036 | 21 | 175 | 0.0 | 0.0 | 0.00 | 0.03 | 0.00 | 93 | 1010.6 |
| 20260905120525 | 21 | 175 | 0.0 | 0.0 | 0.00 | 0.03 | 0.00 | 93 | 1010.6 |
| 20260905120002 | 21 | 175 | 0.0 | 0.0 | 0.00 | 0.03 | 0.00 | 93 | 1010.6 |
| 20260905115554 | 21 | 175 | 0.0 | 0.0 | 0.00 | 0.03 | 0.00 | 92 | 1010.5 |
| 20260905115043 | 21 | 175 | 0.0 | 0.0 | 0.00 | 0.03 | 0.00 | 92 | 1010.5 |
| 20260905114532 | 21 | 175 | 0.0 | 0.0 | 0.00 | 0.03 | 0.00 | 92 | 1010.4 |
| 20260905114021 | 21 | 175 | 0.0 | 0.0 | 0.00 | 0.03 | 0.00 | 92 | 1010.4 |
| 20260905113511 | 21 | 175 | 0.0 | 0.0 | 0.00 | 0.03 | 0.00 | 92 | 1010.5 |
| 20260905113104 | 21 | 175 | 0.0 | 0.0 | 0.00 | 0.03 | 0.00 | 92 | 1010.5 |
| 20260905112553 | 21 | 175 | 0.0 | 0.0 | 0.00 | 0.03 | 0.00 | 92 | 1010.5 |
| 20260905112041 | 22 | 175 | 0.0 | 0.0 | 0.00 | 0.03 | 0.00 | 92 | 1010.4 |
| 20260905111532 | 22 | 175 | 0.0 | 0.0 | 0.00 | 0.03 | 0.00 | 92 | 1010.4 |
| 20260905111020 | 22 | 175 | 0.0 | 0.0 | 0.00 | 0.03 | 0.00 | 92 | 1010.4 |
| 20260905110508 | 22 | 175 | 0.0 | 0.0 | 0.00 | 0.03 | 0.00 | 91 | 1010.4 |
| 20260905110053 | 22 | 175 | 0.0 | 0.0 | 0.00 | 0.03 | 0.00 | 91 | 1010.4 |
| 20260905105537 | 22 | 175 | 0.0 | 0.0 | 0.00 | 0.03 | 0.00 | 91 | 1010.4 |
| 20260905105026 | 22 | 175 | 0.0 | 0.0 | 0.00 | 0.03 | 0.00 | 91 | 1010.3 |
| 20260905104517 | 22 | 175 | 0.0 | 0.0 | 0.00 | 0.03 | 0.00 | 91 | 1010.2 |
| 20260905104009 | 22 | 175 | 0.0 | 0.0 | 0.00 | 0.03 | 0.00 | 91 | 1010.1 |
| 20260905103601 | 22 | 175 | 0.0 | 0.0 | 0.00 | 0.03 | 0.00 | 91 | 1010.1 |
| 20260905103051 | 22 | 175 | 0.0 | 0.0 | 0.00 | 0.03 | 0.00 | 91 | 1010.1 |
| 20260905102536 | 22 | 175 | 0.0 | 0.0 | 0.00 | 0.03 | 0.00 | 91 | 1010.1 |
| 20260905102025 | 22 | 175 | 0.0 | 0.0 | 0.00 | 0.03 | 0.00 | 90 | 1010.1 |
| 20260905101516 | 23 | 175 | 0.0 | 0.0 | 0.00 | 0.03 | 0.00 | 90 | 1010.1 |
| 20260905101004 | 23 | 175 | 0.0 | 0.0 | 0.00 | 0.03 | 0.00 | 90 | 1010.1 |
| 20260905100556 | 23 | 175 | 0.0 | 0.0 | 0.00 | 0.03 | 0.00 | 89 | 1010.1 |
| 20260905100033 | 23 | 175 | 0.0 | 0.0 | 0.00 | 0.03 | 0.00 | 89 | 1010.0 |
| 20260905095522 | 23 | 175 | 0.0 | 0.0 | 0.00 | 0.03 | 0.00 | 89 | 1009.9 |
| 20260905095011 | 23 | 175 | 0.0 | 0.0 | 0.00 | 0.03 | 0.00 | 89 | 1010.0 |
| 20260905094603 | 23 | 175 | 0.0 | 0.0 | 0.00 | 0.03 | 0.00 | 89 | 1010.1 |
| 20260905094051 | 23 | 175 | 0.0 | 0.0 | 0.00 | 0.03 | 0.00 | 89 | 1010.0 |
| 20260905093541 | 23 | 175 | 0.0 | 0.0 | 0.00 | 0.03 | 0.00 | 89 | 1010.0 |
| 20260905093030 | 23 | 175 | 0.0 | 0.0 | 0.00 | 0.03 | 0.00 | 89 | 1010.0 |
| 20260905092521 | 23 | 175 | 0.0 | 0.0 | 0.00 | 0.03 | 0.00 | 89 | 1009.9 |
| 20260905092009 | 24 | 175 | 0.0 | 0.0 | 0.00 | 0.03 | 0.00 | 89 | 1009.9 |
| 20260905091622 | 24 | 175 | 0.0 | 0.0 | 0.00 | 0.03 | 0.00 | 89 | 1010.0 |
| 20260905091050 | 24 | 175 | 0.0 | 0.0 | 0.00 | 0.03 | 0.00 | 88 | 1010.1 |
| 20260905090538 | 24 | 175 | 0.0 | 0.0 | 0.00 | 0.03 | 0.00 | 88 | 1010.1 |
| 20260905090016 | 24 | 175 | 0.0 | 0.0 | 0.00 | 0.03 | 0.00 | 88 | 1010.1 |
| 20260905085505 | 25 | 175 | 0.0 | 0.0 | 0.00 | 0.03 | 0.00 | 88 | 1010.1 |
| 20260905085056 | 25 | 175 | 0.0 | 0.0 | 0.00 | 0.03 | 0.00 | 88 | 1010.2 |
| 20260905084542 | 25 | 175 | 0.0 | 0.0 | 0.00 | 0.03 | 0.00 | 88 | 1010.2 |
| 20260905084032 | 25 | 175 | 0.0 | 0.0 | 0.00 | 0.03 | 0.00 | 88 | 1010.2 |
| 20260905083520 | 25 | 175 | 0.0 | 0.0 | 0.00 | 0.03 | 0.00 | 88 | 1010.2 |
| 20260905083010 | 25 | 175 | 0.0 | 1.6 | 0.00 | 0.03 | 0.00 | 88 | 1010.3 |
| 20260905082604 | 25 | 175 | 0.0 | 3.2 | 0.00 | 0.03 | 0.00 | 88 | 1010.3 |
| 20260905082051 | 25 | 175 | 0.0 | 4.8 | 0.00 | 0.03 | 0.00 | 88 | 1010.3 |
| 20260905081542 | 25 | 177 | 0.0 | 8.0 | 0.00 | 0.03 | 0.00 | 88 | 1010.4 |
| 20260905081030 | 25 | 157 | 0.0 | 8.0 | 0.00 | 0.03 | 0.00 | 88 | 1010.4 |
| 20260905080516 | 25 | 175 | 1.6 | 8.0 | 0.00 | 0.03 | 0.00 | 87 | 1010.4 |
| 20260905080058 | 25 | 186 | 0.0 | 6.4 | 0.00 | 0.03 | 0.00 | 87 | 1010.5 |
| 20260905075546 | 25 | 168 | 1.6 | 6.4 | 0.00 | 0.03 | 0.00 | 87 | 1010.4 |
| 20260905075035 | 25 | 150 | 0.0 | 6.4 | 0.00 | 0.03 | 0.00 | 87 | 1010.4 |
| 20260905074525 | 25 | 146 | 0.0 | 9.7 | 0.00 | 0.03 | 0.00 | 87 | 1010.4 |
| 20260905074013 | 25 | 148 | 3.2 | 9.7 | 0.00 | 0.03 | 0.00 | 86 | 1010.5 |
| 20260905073503 | 25 | 182 | 3.2 | 9.7 | 0.00 | 0.03 | 0.00 | 86 | 1010.5 |
| 20260905073100 | 25 | 136 | 0.0 | 8.0 | 0.00 | 0.03 | 0.00 | 86 | 1010.6 |
| 20260905072544 | 25 | 165 | 4.8 | 8.0 | 0.00 | 0.03 | 0.00 | 86 | 1010.6 |
| 20260905072035 | 25 | 138 | 0.0 | 8.0 | 0.00 | 0.03 | 0.00 | 85 | 1010.6 |
| 20260905071523 | 25 | 180 | 1.6 | 11.3 | 0.00 | 0.03 | 0.00 | 85 | 1010.6 |
| 20260905071012 | 25 | 186 | 1.6 | 11.3 | 0.00 | 0.03 | 0.00 | 85 | 1010.6 |
| 20260905070501 | 25 | 133 | 3.2 | 8.0 | 0.00 | 0.03 | 0.00 | 85 | 1010.6 |
| 20260905070041 | 25 | 153 | 1.6 | 8.0 | 0.00 | 0.03 | 0.00 | 84 | 1010.5 |
| 20260905065533 | 25 | 149 | 1.6 | 4.8 | 0.00 | 0.03 | 0.00 | 84 | 1010.5 |
| 20260905065018 | 25 | 170 | 0.0 | 4.8 | 0.00 | 0.03 | 0.00 | 84 | 1010.6 |
| 20260905064508 | 25 | 171 | 1.6 | 8.0 | 0.00 | 0.03 | 0.00 | 84 | 1010.7 |
| 20260905064102 | 25 | 153 | 3.2 | 8.0 | 0.00 | 0.03 | 0.00 | 84 | 1010.7 |
| 20260905063549 | 25 | 147 | 1.6 | 9.7 | 0.00 | 0.03 | 0.00 | 84 | 1010.8 |
| 20260905063039 | 25 | 124 | 1.6 | 11.3 | 0.00 | 0.03 | 0.00 | 83 | 1010.8 |
| 20260905062528 | 25 | 168 | 1.6 | 8.0 | 0.00 | 0.03 | 0.00 | 83 | 1010.8 |
| 20260905062018 | 25 | 136 | 1.6 | 6.4 | 0.00 | 0.03 | 0.00 | 83 | 1010.8 |
| 20260905061508 | 25 | 136 | 0.0 | 4.8 | 0.00 | 0.03 | 0.00 | 82 | 1010.8 |
| 20260905061058 | 25 | 136 | 0.0 | 4.8 | 0.00 | 0.03 | 0.00 | 82 | 1010.7 |
| 20260905060548 | 25 | 136 | 0.0 | 4.8 | 0.00 | 0.03 | 0.00 | 82 | 1010.8 |
| 20260905060025 | 25 | 134 | 1.6 | 6.4 | 0.00 | 0.03 | 0.00 | 82 | 1010.7 |
| 20260905055517 | 25 | 135 | 3.2 | 6.4 | 0.00 | 0.03 | 0.00 | 82 | 1010.6 |
| 20260905055006 | 25 | 150 | 0.0 | 11.3 | 0.00 | 0.03 | 0.00 | 82 | 1010.6 |
| 20260905054555 | 25 | 131 | 3.2 | 11.3 | 0.00 | 0.03 | 0.00 | 82 | 1010.7 |
| 20260905054044 | 25 | 140 | 1.6 | 11.3 | 0.00 | 0.03 | 0.00 | 82 | 1010.7 |
| 20260905053535 | 25 | 153 | 1.6 | 11.3 | 0.00 | 0.03 | 0.00 | 82 | 1010.8 |
| 20260905053022 | 25 | 138 | 1.6 | 6.4 | 0.00 | 0.03 | 0.00 | 82 | 1010.7 |
| 20260905052516 | 25 | 144 | 1.6 | 11.3 | 0.00 | 0.03 | 0.00 | 82 | 1010.7 |
| 20260905052002 | 25 | 151 | 3.2 | 8.0 | 0.00 | 0.03 | 0.00 | 82 | 1010.8 |
| 20260905051554 | 25 | 120 | 3.2 | 9.7 | 0.00 | 0.03 | 0.00 | 81 | 1010.7 |
| 20260905051042 | 25 | 117 | 1.6 | 6.4 | 0.00 | 0.03 | 0.00 | 81 | 1010.8 |
| 20260905050531 | 25 | 126 | 0.0 | 4.8 | 0.00 | 0.03 | 0.00 | 80 | 1010.8 |
| 20260905050007 | 25 | 128 | 0.0 | 4.8 | 0.00 | 0.03 | 0.03 | 80 | 1010.9 |
| 20260905045558 | 25 | 128 | 0.0 | 4.8 | 0.00 | 0.03 | 0.03 | 79 | 1010.9 |
| 20260905045048 | 25 | 114 | 0.0 | 4.8 | 0.00 | 0.03 | 0.03 | 79 | 1010.9 |
| 20260905044538 | 25 | 114 | 0.0 | 3.2 | 0.00 | 0.03 | 0.03 | 79 | 1010.9 |
| 20260905044026 | 25 | 115 | 0.0 | 1.6 | 0.00 | 0.03 | 0.03 | 78 | 1010.9 |
| 20260905043516 | 25 | 115 | 0.0 | 6.4 | 0.00 | 0.03 | 0.03 | 78 | 1010.9 |
| 20260905043009 | 25 | 115 | 0.0 | 6.4 | 0.00 | 0.03 | 0.03 | 78 | 1010.9 |
| 20260905042556 | 25 | 117 | 0.0 | 4.8 | 0.00 | 0.03 | 0.03 | 78 | 1011.0 |
| 20260905042048 | 26 | 118 | 0.0 | 4.8 | 0.00 | 0.03 | 0.03 | 77 | 1011.0 |
| 20260905041535 | 26 | 118 | 0.0 | 4.8 | 0.00 | 0.03 | 0.03 | 77 | 1011.0 |
| 20260905041027 | 26 | 117 | 0.0 | 4.8 | 0.00 | 0.03 | 0.03 | 76 | 1011.0 |
| 20260905040514 | 26 | 118 | 0.0 | 4.8 | 0.00 | 0.03 | 0.03 | 76 | 1010.9 |
| 20260905040052 | 26 | 118 | 0.0 | 4.8 | 0.00 | 0.03 | 0.03 | 76 | 1010.9 |
| 20260905035541 | 26 | 115 | 0.0 | 4.8 | 0.00 | 0.03 | 0.03 | 75 | 1010.9 |
| 20260905035031 | 26 | 119 | 0.0 | 6.4 | 0.00 | 0.03 | 0.03 | 75 | 1010.9 |
| 20260905034520 | 26 | 118 | 1.6 | 6.4 | 0.00 | 0.03 | 0.03 | 75 | 1010.8 |
| 20260905034010 | 26 | 90 | 0.0 | 6.4 | 0.00 | 0.03 | 0.03 | 74 | 1010.8 |
| 20260905033601 | 26 | 89 | 0.0 | 4.8 | 0.00 | 0.03 | 0.03 | 74 | 1010.7 |
| 20260905033051 | 26 | 88 | 0.0 | 4.8 | 0.00 | 0.03 | 0.03 | 73 | 1010.8 |
| 20260905032542 | 26 | 92 | 1.6 | 6.4 | 0.00 | 0.03 | 0.03 | 73 | 1010.8 |
| 20260905032029 | 26 | 115 | 0.0 | 3.2 | 0.00 | 0.03 | 0.03 | 73 | 1010.7 |
| 20260905031522 | 26 | 117 | 0.0 | 3.2 | 0.00 | 0.03 | 0.03 | 72 | 1010.7 |
| 20260905031007 | 26 | 117 | 0.0 | 3.2 | 0.00 | 0.03 | 0.03 | 72 | 1010.6 |
| 20260905030559 | 26 | 117 | 0.0 | 3.2 | 0.00 | 0.03 | 0.03 | 72 | 1010.6 |
| 20260905030039 | 26 | 117 | 0.0 | 3.2 | 0.00 | 0.03 | 0.03 | 71 | 1010.5 |
| 20260905025525 | 27 | 117 | 0.0 | 4.8 | 0.00 | 0.03 | 0.03 | 71 | 1010.5 |
| 20260905025016 | 27 | 118 | 0.0 | 0.0 | 0.00 | 0.03 | 0.03 | 70 | 1010.3 |
| 20260905024505 | 27 | 119 | 0.0 | 0.0 | 0.00 | 0.03 | 0.03 | 70 | 1010.2 |
| 20260905024056 | 27 | 119 | 0.0 | 3.2 | 0.00 | 0.03 | 0.03 | 70 | 1010.1 |
| 20260905023548 | 27 | 119 | 0.0 | 3.2 | 0.00 | 0.03 | 0.03 | 69 | 1010.1 |
| 20260905023035 | 27 | 119 | 0.0 | 4.8 | 0.00 | 0.03 | 0.03 | 69 | 1010.0 |
| 20260905022526 | 27 | 124 | 0.0 | 6.4 | 0.00 | 0.03 | 0.03 | 68 | 1009.9 |
| 20260905022013 | 27 | 125 | 0.0 | 6.4 | 0.00 | 0.03 | 0.03 | 68 | 1009.8 |
| 20260905021503 | 27 | 123 | 0.0 | 9.7 | 0.00 | 0.03 | 0.03 | 68 | 1009.9 |
| 20260905021053 | 28 | 123 | 0.0 | 9.7 | 0.00 | 0.03 | 0.03 | 68 | 1009.9 |
| 20260905020546 | 28 | 103 | 0.0 | 9.7 | 0.00 | 0.03 | 0.03 | 67 | 1009.9 |
| 20260905020020 | 28 | 118 | 0.0 | 8.0 | 0.00 | 0.03 | 0.03 | 67 | 1009.8 |
| 20260905015509 | 28 | 90 | 3.2 | 11.3 | 0.00 | 0.03 | 0.03 | 67 | 1009.8 |
| 20260905015101 | 28 | 121 | 4.8 | 11.3 | 0.00 | 0.03 | 0.03 | 66 | 1009.8 |
| 20260905014550 | 28 | 122 | 4.8 | 14.5 | 0.00 | 0.03 | 0.03 | 66 | 1009.7 |
| 20260905014039 | 28 | 101 | 4.8 | 14.5 | 0.00 | 0.03 | 0.03 | 66 | 1009.7 |
| 20260905013529 | 28 | 96 | 6.4 | 14.5 | 0.00 | 0.03 | 0.03 | 65 | 1009.7 |
| 20260905013017 | 28 | 108 | 1.6 | 6.4 | 0.00 | 0.03 | 0.03 | 61 | 1009.6 |
| 20260905012507 | 28 | 127 | 0.0 | 9.7 | 0.00 | 0.03 | 0.03 | 58 | 1009.6 |
| 20260905012058 | 28 | 105 | 3.2 | 9.7 | 0.00 | 0.03 | 0.03 | 57 | 1009.5 |
| 20260905011547 | 29 | 98 | 0.0 | 9.7 | 0.00 | 0.03 | 0.03 | 54 | 1009.4 |
| 20260905011036 | 29 | 108 | 0.0 | 0.0 | 0.00 | 0.03 | 0.03 | 51 | 1009.3 |
| 20260905010526 | 30 | 108 | 0.0 | 0.0 | 0.00 | 0.03 | 0.03 | 51 | 1009.3 |
| 20260905010004 | 30 | 108 | 0.0 | 0.0 | 0.00 | 0.03 | 0.03 | 51 | 1009.3 |
| 20260905005555 | 30 | 108 | 0.0 | 0.0 | 0.00 | 0.03 | 0.03 | 51 | 1009.3 |
| 20260905005047 | 30 | 108 | 0.0 | 0.0 | 0.00 | 0.03 | 0.03 | 50 | 1009.3 |
| 20260905004539 | 30 | 108 | 0.0 | 0.0 | 0.00 | 0.03 | 0.03 | 51 | 1009.2 |
| 20260905004023 | 30 | 107 | 0.0 | 4.8 | 0.00 | 0.03 | 0.03 | 51 | 1009.1 |
| 20260905003516 | 30 | 107 | 1.6 | 4.8 | 0.00 | 0.03 | 0.03 | 52 | 1009.1 |
| 20260905003002 | 31 | 135 | 0.0 | 3.2 | 0.00 | 0.03 | 0.03 | 55 | 1009.0 |
| 20260905002556 | 31 | 135 | 0.0 | 6.4 | 0.00 | 0.03 | 0.03 | 54 | 1009.0 |
| 20260905002043 | 31 | 135 | 0.0 | 11.3 | 0.00 | 0.03 | 0.03 | 54 | 1008.9 |
| 20260905001547 | 31 | 146 | 3.2 | 11.3 | 0.00 | 0.03 | 0.03 | 53 | 1008.8 |
| 20260905001022 | 31 | 138 | 3.2 | 14.5 | 0.00 | 0.03 | 0.03 | 53 | 1008.8 |
| 20260905000511 | 31 | 152 | 6.4 | 14.5 | 0.00 | 0.03 | 0.03 | 53 | 1008.7 |
| 20260905000109 | 32 | 159 | 4.8 | 11.3 | 0.00 | 0.03 | 0.03 | 54 | 1008.6 |
| 20260904235543 | 32 | 143 | 3.2 | 12.9 | 0.00 | 0.03 | 0.03 | 55 | 1008.6 |
| 20260904235031 | 32 | 173 | 4.8 | 14.5 | 0.00 | 0.03 | 0.03 | 56 | 1008.4 |
| 20260904234524 | 32 | 152 | 11.3 | 17.7 | 0.00 | 0.03 | 0.03 | 55 | 1008.5 |
| 20260904234013 | 32 | 143 | 6.4 | 17.7 | 0.00 | 0.03 | 0.03 | 56 | 1008.4 |
| 20260904233559 | 32 | 128 | 3.2 | 14.5 | 0.00 | 0.03 | 0.03 | 56 | 1008.4 |
| 20260904233102 | 32 | 154 | 6.4 | 19.3 | 0.00 | 0.03 | 0.03 | 55 | 1008.4 |
| 20260904232538 | 32 | 111 | 12.9 | 19.3 | 0.00 | 0.03 | 0.03 | 54 | 1008.3 |
| 20260904232030 | 32 | 153 | 9.7 | 16.1 | 0.00 | 0.03 | 0.03 | 55 | 1008.3 |
| 20260904231518 | 32 | 164 | 9.7 | 20.9 | 0.00 | 0.03 | 0.03 | 55 | 1008.4 |
| 20260904231008 | 32 | 198 | 6.4 | 19.3 | 0.00 | 0.03 | 0.03 | 54 | 1008.4 |
| 20260904230556 | 32 | 122 | 8.0 | 19.3 | 0.00 | 0.03 | 0.03 | 53 | 1008.4 |
| 20260904230034 | 32 | 138 | 4.8 | 17.7 | 0.00 | 0.03 | 0.03 | 53 | 1008.5 |
| 20260904225523 | 32 | 129 | 6.4 | 17.7 | 0.00 | 0.03 | 0.03 | 54 | 1008.6 |
| 20260904225014 | 33 | 79 | 9.7 | 17.7 | 0.00 | 0.03 | 0.03 | 53 | 1008.6 |
| 20260904224506 | 33 | 91 | 8.0 | 19.3 | 0.00 | 0.03 | 0.03 | 53 | 1008.6 |
| 20260904224055 | 33 | 155 | 9.7 | 19.3 | 0.00 | 0.03 | 0.03 | 52 | 1008.6 |
| 20260904223543 | 33 | 137 | 8.0 | 16.1 | 0.00 | 0.03 | 0.03 | 53 | 1008.7 |
| 20260904223033 | 33 | 163 | 8.0 | 14.5 | 0.00 | 0.03 | 0.03 | 54 | 1008.8 |
| 20260904222522 | 33 | 132 | 4.8 | 17.7 | 0.00 | 0.03 | 0.03 | 55 | 1008.9 |
| 20260904222011 | 33 | 99 | 1.6 | 14.5 | 0.00 | 0.03 | 0.03 | 55 | 1008.8 |
| 20260904221604 | 33 | 134 | 8.0 | 16.1 | 0.00 | 0.03 | 0.03 | 55 | 1008.9 |
| 20260904221051 | 33 | 169 | 8.0 | 17.7 | 0.00 | 0.03 | 0.03 | 55 | 1009.0 |
| 20260904220541 | 33 | 130 | 4.8 | 16.1 | 0.00 | 0.03 | 0.03 | 56 | 1009.1 |
| 20260904220017 | 33 | 123 | 6.4 | 19.3 | 0.00 | 0.03 | 0.03 | 56 | 1009.1 |
| 20260904215507 | 33 | 87 | 8.0 | 19.3 | 0.00 | 0.03 | 0.03 | 56 | 1009.0 |
| 20260904215058 | 32 | 134 | 9.7 | 17.7 | 0.00 | 0.03 | 0.03 | 57 | 1009.0 |
| 20260904214547 | 32 | 119 | 8.0 | 19.3 | 0.00 | 0.03 | 0.03 | 57 | 1009.0 |
| 20260904214037 | 32 | 148 | 9.7 | 20.9 | 0.00 | 0.03 | 0.03 | 55 | 1009.0 |
| 20260904213529 | 32 | 175 | 8.0 | 20.9 | 0.00 | 0.03 | 0.03 | 54 | 1009.1 |
| 20260904213023 | 32 | 166 | 9.7 | 16.1 | 0.00 | 0.03 | 0.03 | 54 | 1009.1 |
| 20260904212505 | 33 | 133 | 1.6 | 17.7 | 0.00 | 0.03 | 0.03 | 54 | 1009.3 |
| 20260904212056 | 33 | 146 | 8.0 | 17.7 | 0.00 | 0.03 | 0.03 | 53 | 1009.4 |
| 20260904211548 | 33 | 134 | 9.7 | 16.1 | 0.00 | 0.03 | 0.03 | 52 | 1009.5 |
| 20260904211034 | 33 | 92 | 4.8 | 17.7 | 0.00 | 0.03 | 0.03 | 51 | 1009.5 |
| 20260904210524 | 33 | 107 | 6.4 | 17.7 | 0.00 | 0.03 | 0.03 | 51 | 1009.6 |
| 20260904210120 | 33 | 113 | 9.7 | 17.7 | 0.00 | 0.03 | 0.03 | 49 | 1009.6 |
| 20260904205550 | 33 | 86 | 9.7 | 17.7 | 0.00 | 0.03 | 0.03 | 49 | 1009.7 |
| 20260904205040 | 33 | 123 | 4.8 | 17.7 | 0.00 | 0.03 | 0.03 | 48 | 1009.6 |
| 20260904204529 | 33 | 182 | 11.3 | 19.3 | 0.00 | 0.03 | 0.03 | 51 | 1009.6 |
| 20260904204018 | 33 | 119 | 4.8 | 17.7 | 0.00 | 0.03 | 0.03 | 48 | 1009.7 |
| 20260904203508 | 33 | 159 | 8.0 | 19.3 | 0.00 | 0.03 | 0.03 | 51 | 1009.7 |
| 20260904203104 | 33 | 160 | 8.0 | 17.7 | 0.00 | 0.03 | 0.03 | 52 | 1009.8 |
| 20260904202550 | 33 | 160 | 9.7 | 20.9 | 0.00 | 0.03 | 0.03 | 55 | 1009.7 |
| 20260904202037 | 33 | 92 | 11.3 | 20.9 | 0.00 | 0.03 | 0.03 | 53 | 1009.8 |
| 20260904201526 | 33 | 108 | 6.4 | 16.1 | 0.00 | 0.03 | 0.03 | 54 | 1009.8 |
| 20260904201015 | 32 | 131 | 6.4 | 19.3 | 0.00 | 0.03 | 0.03 | 55 | 1009.8 |
| 20260904200507 | 32 | 122 | 6.4 | 19.3 | 0.00 | 0.03 | 0.03 | 56 | 1009.8 |
| 20260904200044 | 32 | 100 | 8.0 | 22.5 | 0.00 | 0.03 | 0.03 | 56 | 1009.9 |
| 20260904195533 | 32 | 144 | 9.7 | 22.5 | 0.00 | 0.03 | 0.03 | 56 | 1009.9 |
| 20260904195022 | 32 | 130 | 4.8 | 16.1 | 0.00 | 0.03 | 0.03 | 56 | 1010.0 |
| 20260904194511 | 32 | 145 | 6.4 | 17.7 | 0.00 | 0.03 | 0.03 | 57 | 1010.1 |
| 20260904194000 | 32 | 80 | 8.0 | 17.7 | 0.00 | 0.03 | 0.03 | 57 | 1010.1 |
| 20260904193553 | 32 | 115 | 4.8 | 17.7 | 0.00 | 0.03 | 0.03 | 58 | 1010.2 |
| 20260904193040 | 33 | 175 | 9.7 | 17.7 | 0.00 | 0.03 | 0.03 | 58 | 1010.3 |
| 20260904192529 | 33 | 126 | 9.7 | 16.1 | 0.00 | 0.03 | 0.03 | 55 | 1010.3 |
| 20260904192016 | 33 | 78 | 3.2 | 16.1 | 0.00 | 0.03 | 0.03 | 57 | 1010.3 |
| 20260904191506 | 32 | 189 | 9.7 | 16.1 | 0.00 | 0.03 | 0.03 | 57 | 1010.5 |
| 20260904191058 | 32 | 158 | 4.8 | 16.1 | 0.00 | 0.03 | 0.03 | 60 | 1010.5 |
| 20260904190546 | 32 | 112 | 8.0 | 16.1 | 0.00 | 0.03 | 0.03 | 60 | 1010.6 |
| 20260904190032 | 32 | 155 | 3.2 | 14.5 | 0.00 | 0.03 | 0.03 | 61 | 1010.7 |
| 20260904185513 | 32 | 91 | 4.8 | 16.1 | 0.00 | 0.03 | 0.03 | 63 | 1010.6 |
| 20260904185002 | 32 | 202 | 8.0 | 16.1 | 0.00 | 0.03 | 0.03 | 63 | 1010.7 |
| 20260904184554 | 32 | 151 | 6.4 | 19.3 | 0.00 | 0.03 | 0.03 | 63 | 1010.7 |
| 20260904184046 | 32 | 90 | 3.2 | 19.3 | 0.00 | 0.03 | 0.03 | 63 | 1010.7 |
| 20260904183537 | 32 | 108 | 4.8 | 12.9 | 0.00 | 0.03 | 0.03 | 62 | 1010.8 |
| 20260904183026 | 32 | 113 | 1.6 | 12.9 | 0.00 | 0.03 | 0.03 | 62 | 1010.8 |
| 20260904182511 | 32 | 153 | 4.8 | 16.1 | 0.00 | 0.03 | 0.03 | 63 | 1010.7 |
| 20260904182003 | 32 | 137 | 11.3 | 16.1 | 0.00 | 0.03 | 0.03 | 63 | 1010.8 |